LEOIR Weather Reports


Display with metric or nautical units.
time (UTC)temp
F
wind
direction
speed
MPH
gust
MPH
rain 1hr
in
rain 24hr
in
rain mn
in
humidity
%
barometer
mb
20260506160058 80 78 0.0 3.0 0.00 0.00 0.00 34 1003.2
20260506154557 82 94 0.0 11.0 0.00 0.00 0.00 32 1003.2
20260506153056 83 75 0.0 4.0 0.00 0.00 0.00 31 1003.2
20260506151607 83 33 0.0 10.0 0.00 0.00 0.00 32 1003.1
20260506150052 83 29 0.0 1.0 0.00 0.00 0.00 32 1003.0
20260506144551 83 37 0.0 3.0 0.00 0.00 0.00 32 1003.0
20260506143054 82 306 0.0 3.0 0.00 0.00 0.00 33 1003.1
20260506141550 81 24 0.0 2.0 0.00 0.00 0.00 33 1003.1
20260506134548 82 58 0.0 3.0 0.00 0.00 0.00 33 1003.1
20260506133050 82 54 0.0 6.0 0.00 0.00 0.00 32 1003.0
20260506131552 83 16 0.0 1.0 0.00 0.00 0.00 31 1003.0
20260506130053 83 32 0.0 3.0 0.00 0.00 0.00 31 1002.9
20260506124542 83 27 0.0 6.0 0.00 0.00 0.00 32 1003.0
20260506123041 84 60 0.0 5.0 0.00 0.00 0.00 30 1003.2
20260506121541 83 287 0.0 5.0 0.00 0.00 0.00 31 1003.2
20260506120044 83 342 0.0 8.0 0.00 0.00 0.00 30 1003.2
20260506114542 83 72 0.0 4.0 0.00 0.00 0.00 29 1003.2
20260506113035 83 323 0.0 4.0 0.00 0.00 0.00 30 1003.1
20260506111535 82 318 0.0 5.0 0.00 0.00 0.00 29 1003.0
20260506110036 82 15 1.0 5.0 0.00 0.00 0.00 29 1003.2
20260506104528 81 352 1.0 6.0 0.00 0.00 0.00 30 1003.3
20260506103026 81 326 0.0 4.0 0.00 0.00 0.00 30 1003.3
20260506101542 81 27 0.0 9.0 0.00 0.00 0.00 31 1003.5
20260506100022 80 35 0.0 7.0 0.00 0.00 0.00 31 1003.5
20260506094521 79 316 0.0 10.0 0.00 0.00 0.00 32 1003.6
20260506093022 80 316 1.0 8.0 0.00 0.00 0.00 32 1003.5
20260506091521 80 80 0.0 3.0 0.00 0.00 0.00 31 1003.4
20260506090015 79 83 0.0 7.0 0.00 0.00 0.00 33 1003.3
20260506084518 78 52 0.0 7.0 0.00 0.00 0.00 33 1003.2
20260506083008 77 312 1.0 8.0 0.00 0.00 0.00 33 1003.4
20260506081508 77 81 0.0 4.0 0.00 0.00 0.00 34 1003.4
20260506073053 75 347 0.0 4.0 0.00 0.00 0.00 36 1003.5
20260506071604 74 14 1.0 6.0 0.00 0.00 0.00 37 1003.6
20260506061531 71 324 0.0 2.0 0.00 0.00 0.00 38 1003.6
20260506044502 62 13 0.0 0.0 0.00 0.00 0.00 45 1004.5
20260506043059 62 13 0.0 0.0 0.00 0.00 0.00 44 1004.5
20260506041605 62 13 0.0 0.0 0.00 0.00 0.00 44 1004.7
20260506040052 60 13 0.0 0.0 0.00 0.00 0.00 46 1004.8
20260506034548 58 13 0.0 0.0 0.00 0.00 0.00 48 1004.9
20260506033043 57 13 0.0 0.0 0.00 0.00 0.00 50 1004.9
20260506031540 56 13 0.0 0.0 0.00 0.00 0.00 50 1005.0
20260506030037 56 13 0.0 0.0 0.00 0.00 0.00 50 1005.1
20260506024540 56 13 0.0 0.0 0.00 0.00 0.00 51 1005.1
20260506023033 56 13 0.0 0.0 0.00 0.00 0.00 51 1005.1
20260506021532 57 13 0.0 0.0 0.00 0.00 0.00 50 1005.0
20260506020029 57 13 0.0 0.0 0.00 0.00 0.00 50 1005.0
20260506014541 57 13 0.0 0.0 0.00 0.00 0.00 49 1005.1
20260506013027 57 13 0.0 0.0 0.00 0.00 0.00 49 1005.0
20260506011520 57 13 0.0 0.0 0.00 0.00 0.00 49 1005.0
20260506010024 58 13 0.0 0.0 0.00 0.00 0.00 49 1004.9
20260506004519 58 13 0.0 0.0 0.00 0.00 0.00 48 1004.9
20260506003011 59 13 0.0 0.0 0.00 0.00 0.00 48 1004.9
20260506001509 59 13 0.0 0.0 0.00 0.00 0.00 47 1004.8
20260506000015 59 13 0.0 0.0 0.00 0.00 0.00 46 1004.8
20260505234513 59 13 0.0 0.0 0.00 0.00 0.00 46 1004.8
20260505233001 60 13 0.0 0.0 0.00 0.00 0.00 45 1004.8
20260505231559 60 13 0.0 0.0 0.00 0.00 0.00 45 1004.9
20260505230115 61 13 0.0 0.0 0.00 0.00 0.00 44 1004.8
20260505224553 61 13 0.0 0.0 0.00 0.00 0.00 43 1004.8
20260505223057 62 13 0.0 0.0 0.00 0.00 0.00 43 1004.9
20260505221552 62 13 0.0 0.0 0.00 0.00 0.00 42 1004.8
20260505220044 63 13 0.0 0.0 0.00 0.00 0.00 41 1004.8
20260505214557 64 13 0.0 0.0 0.00 0.00 0.00 40 1004.9
20260505213053 64 13 0.0 0.0 0.00 0.00 0.00 40 1004.9
20260505211542 65 13 0.0 0.0 0.00 0.00 0.00 40 1004.9
20260505210041 66 13 0.0 0.0 0.00 0.00 0.00 38 1005.0
20260505204540 66 13 0.0 0.0 0.00 0.00 0.00 38 1005.0
20260505203046 67 13 0.0 0.0 0.00 0.00 0.00 38 1004.9
20260505201549 67 13 0.0 0.0 0.00 0.00 0.00 37 1005.0
20260505200040 68 13 0.0 0.0 0.00 0.00 0.00 37 1004.9
20260505194541 68 13 0.0 0.0 0.00 0.00 0.00 37 1004.8
20260505193045 69 15 0.0 1.0 0.00 0.00 0.00 37 1004.8
20260505191549 70 47 0.0 0.0 0.00 0.00 0.00 36 1004.7
20260505190041 71 47 0.0 0.0 0.00 0.00 0.00 36 1004.7
20260505184537 72 47 0.0 0.0 0.00 0.00 0.00 35 1004.7
20260505183047 73 47 0.0 0.0 0.00 0.00 0.00 36 1004.6
20260505181536 74 47 0.0 0.0 0.00 0.00 0.00 36 1004.5
20260505180040 75 47 0.0 0.0 0.00 0.00 0.00 34 1004.5
20260505174540 76 47 0.0 0.0 0.00 0.00 0.00 32 1004.4
20260505173039 77 47 0.0 0.0 0.00 0.00 0.00 30 1004.4
20260505171539 79 47 0.0 0.0 0.00 0.00 0.00 28 1004.4
20260505170034 80 47 0.0 0.0 0.00 0.00 0.00 26 1004.4
20260505164536 81 47 0.0 0.0 0.00 0.00 0.00 25 1004.4
20260505163032 83 47 0.0 1.0 0.00 0.00 0.00 23 1004.5
20260505161529 82 46 0.0 0.0 0.00 0.00 0.00 23 1004.5